Weather History for KMRN - May, 2013

Change the Weather History Date:

Friday, May 31, 2013

  Actual Average (KHKY) Record (KHKY)
Temperature  
Mean Temperature 70 °F -  
Max Temperature 84 °F 80 °F 96 °F (2011)
Min Temperature 56 °F 59 °F 40 °F (1984)
Cooling Degree Days 5    
Growing Degree Days 20 (Base 50)    
Moisture  
Dew Point 61 °F    
Average Humidity 75    
Maximum Humidity 100    
Minimum Humidity 44    
Precipitation  
Precipitation 0.00 in - - ()
Sea Level Pressure  
Sea Level Pressure 30.24 in    
Wind  
Wind Speed 2 mph (South)    
Max Wind Speed 8 mph    
Max Gust Speed -    
Visibility 9 miles    
Events      
Averages and records for this station are not official NWS values.
T = Trace of Precipitation, MM = Missing Value Source: NWS Daily Summary

Daily Weather History Graph

Daily Weather History Graph

Search for Another Location

Airport or City:

Trip Planner

Search our weather history database for the weather conditions in past years. The results will help you decide how hot, cold, wet, or windy it might be!

Date:

Astronomy

May. 31, 2013 Rise Set
Actual Time 6:11 AM EDT 8:36 PM EDT
Civil Twilight 5:42 AM EDT 9:06 PM EDT
Nautical Twilight 5:05 AM EDT 9:42 PM EDT
Astronomical Twilight 4:25 AM EDT 10:23 PM EDT
Moon 1:19 AM EDT (5/31) 1:15 PM EDT (5/31)
Length of Visible Light 15h 24m
Length of Day
14h 25m
Waning Gibbous, 51% of the Moon is Illuminated
May 31
Waning Gibbous
May 31
Last Quarter
Jun 8
New
Jun 16
First Quarter
Jun 23
Full

Hourly Weather History & Observations

Time (EDT) Temp. Heat Index Dew Point Humidity Pressure Visibility Wind Dir Wind Speed Gust Speed Precip Events Conditions
12:15 AM 60.6 °F - 59.5 °F 96% 30.27 in 10.0 mi Calm Calm - N/A   Clear
12:35 AM 62.1 °F - 61.2 °F 97% 30.28 in 10.0 mi Calm Calm - N/A   Scattered Clouds
12:55 AM 61.7 °F - 60.6 °F 96% 30.28 in 10.0 mi Calm Calm - N/A   Mostly Cloudy
1:15 AM 65.1 °F - 63.7 °F 95% 30.28 in 10.0 mi Calm Calm - N/A   Mostly Cloudy
1:35 AM 64.6 °F - 63.1 °F 95% 30.28 in 10.0 mi Calm Calm - N/A   Overcast
1:55 AM 66.0 °F - 63.5 °F 92% 30.28 in 10.0 mi Calm Calm - N/A   Overcast
2:15 AM 63.5 °F - 62.1 °F 95% 30.28 in 10.0 mi Calm Calm - N/A   Overcast
2:35 AM 62.6 °F - 61.9 °F 97% 30.27 in 10.0 mi Calm Calm - N/A   Mostly Cloudy
2:55 AM 61.2 °F - 60.6 °F 98% 30.27 in 7.0 mi Calm Calm - N/A   Scattered Clouds
3:15 AM 60.3 °F - 60.1 °F 99% 30.27 in 7.0 mi Calm Calm - N/A   Scattered Clouds
3:35 AM 60.4 °F - 60.3 °F 99% 30.27 in 7.0 mi Calm Calm - N/A   Mostly Cloudy
3:55 AM 59.7 °F - 59.7 °F 100% 30.27 in 7.0 mi Calm Calm - N/A   Scattered Clouds
4:15 AM 59.9 °F - 59.9 °F 100% 30.27 in 7.0 mi Calm Calm - N/A   Scattered Clouds
4:35 AM 58.5 °F - 58.5 °F 100% 30.26 in 5.0 mi Calm Calm - N/A   Clear
4:55 AM 59.2 °F - 59.2 °F 100% 30.26 in 7.0 mi Calm Calm - N/A   Clear
5:15 AM 58.1 °F - 58.1 °F 100% 30.26 in 5.0 mi Calm Calm - N/A   Clear
5:35 AM 57.9 °F - 57.9 °F 100% 30.26 in 5.0 mi Calm Calm - N/A   Clear
5:55 AM 57.7 °F - 57.7 °F 100% 30.27 in 5.0 mi Calm Calm - N/A   Clear
6:15 AM 57.0 °F - 57.0 °F 100% 30.27 in 3.0 mi Calm Calm - N/A   Clear
6:35 AM 56.8 °F - 56.8 °F 100% 30.27 in 3.0 mi Calm Calm - N/A   Scattered Clouds
6:55 AM 58.3 °F - 58.3 °F 100% 30.28 in 4.0 mi Calm Calm - N/A   Clear
7:15 AM 61.7 °F - 61.7 °F 100% 30.28 in 5.0 mi Calm Calm - N/A   Mostly Cloudy
7:35 AM 61.9 °F - 61.5 °F 99% 30.29 in 7.0 mi Calm Calm - N/A   Scattered Clouds
7:55 AM 63.3 °F - 62.2 °F 96% 30.29 in 10.0 mi Calm Calm - N/A   Clear
8:15 AM 65.3 °F - 62.1 °F 89% 30.29 in 10.0 mi Calm Calm - N/A   Clear
8:35 AM 67.1 °F - 62.2 °F 84% 30.29 in 10.0 mi Calm Calm - N/A   Clear
8:55 AM 68.9 °F - 62.8 °F 81% 30.30 in 10.0 mi Calm Calm - N/A   Clear
9:15 AM 70.9 °F - 63.3 °F 77% 30.30 in 10.0 mi Calm Calm - N/A   Clear
9:35 AM 72.1 °F - 63.9 °F 75% 30.30 in 10.0 mi Calm Calm - N/A   Clear
9:55 AM 73.8 °F - 64.2 °F 72% 30.29 in 10.0 mi SSW 5.8 mph - N/A   Clear
10:15 AM 74.7 °F - 63.1 °F 67% 30.29 in 10.0 mi SSW 5.8 mph - N/A   Scattered Clouds
10:35 AM 75.7 °F - 63.5 °F 66% 30.29 in 10.0 mi South 6.9 mph - N/A   Scattered Clouds
10:55 AM 75.4 °F - 62.1 °F 63% 30.29 in 10.0 mi SW 6.9 mph - N/A   Scattered Clouds
11:15 AM 77.7 °F - 60.4 °F 55% 30.29 in 10.0 mi SW 8.1 mph - N/A   Scattered Clouds
11:35 AM 78.6 °F - 60.4 °F 54% 30.29 in 10.0 mi SSW 4.6 mph - N/A   Clear
11:55 AM 78.4 °F - 60.4 °F 54% 30.29 in 10.0 mi SSW 8.1 mph - N/A   Scattered Clouds
12:15 PM 80.1 °F 81.0 °F 60.3 °F 51% 30.29 in 10.0 mi South 6.9 mph - N/A   Scattered Clouds
12:35 PM 79.5 °F - 60.6 °F 52% 30.28 in 10.0 mi SSW 4.6 mph - N/A   Scattered Clouds
12:55 PM 80.8 °F 81.5 °F 60.8 °F 50% 30.27 in 10.0 mi SSW 6.9 mph - N/A   Scattered Clouds
1:15 PM 81.5 °F 82.0 °F 60.1 °F 48% 30.26 in 10.0 mi South 5.8 mph - N/A   Scattered Clouds
1:35 PM 81.5 °F 82.1 °F 60.4 °F 49% 30.26 in 10.0 mi SSE 5.8 mph - N/A   Scattered Clouds
1:55 PM 81.3 °F 81.7 °F 59.2 °F 47% 30.25 in 10.0 mi South 6.9 mph - N/A   Scattered Clouds
2:15 PM 82.4 °F 82.5 °F 59.0 °F 45% 30.24 in 10.0 mi SSW 8.1 mph - N/A   Scattered Clouds
2:35 PM 82.6 °F 82.5 °F 58.8 °F 44% 30.23 in 10.0 mi South 4.6 mph - N/A   Scattered Clouds
2:55 PM 83.3 °F 83.2 °F 59.2 °F 44% 30.23 in 10.0 mi SW 8.1 mph - N/A   Scattered Clouds
3:15 PM 83.7 °F 83.6 °F 59.4 °F 44% 30.22 in 10.0 mi SSW 5.8 mph - N/A   Scattered Clouds
3:35 PM 83.1 °F 83.3 °F 60.4 °F 46% 30.21 in 10.0 mi SSW 5.8 mph - N/A   Scattered Clouds
3:55 PM 83.8 °F 83.8 °F 60.1 °F 44% 30.21 in 10.0 mi SSE 4.6 mph - N/A   Clear
4:15 PM 81.5 °F 81.8 °F 59.4 °F 47% 30.20 in 10.0 mi South 8.1 mph - N/A   Scattered Clouds
4:35 PM 84.0 °F 84.2 °F 60.6 °F 45% 30.20 in 10.0 mi SSE 8.1 mph - N/A   Scattered Clouds
4:55 PM 82.0 °F 82.2 °F 59.5 °F 46% 30.20 in 10.0 mi SSW 5.8 mph - N/A   Scattered Clouds
5:15 PM 81.7 °F 82.2 °F 60.4 °F 48% 30.19 in 10.0 mi SSW 4.6 mph - N/A   Scattered Clouds
5:35 PM 82.4 °F 83.0 °F 61.5 °F 49% 30.19 in 10.0 mi South 4.6 mph - N/A   Scattered Clouds
5:55 PM 83.1 °F 83.3 °F 60.3 °F 46% 30.18 in 10.0 mi South 8.1 mph - N/A   Clear
6:15 PM 82.2 °F 82.6 °F 60.3 °F 47% 30.18 in 10.0 mi South 4.6 mph - N/A   Clear
6:35 PM 80.1 °F 81.0 °F 60.3 °F 51% 30.18 in 10.0 mi South 4.6 mph - N/A   Clear
6:55 PM 81.0 °F 81.7 °F 60.6 °F 50% 30.19 in 10.0 mi SSW 4.6 mph - N/A   Clear
7:15 PM 80.6 °F 81.4 °F 60.4 °F 50% 30.19 in 10.0 mi South 4.6 mph - N/A   Clear
7:35 PM 79.5 °F - 60.6 °F 52% 30.19 in 10.0 mi South 5.8 mph - N/A   Clear
7:55 PM 78.1 °F - 60.4 °F 54% 30.18 in 10.0 mi South 3.5 mph - N/A   Clear
8:15 PM 76.1 °F - 61.3 °F 60% 30.18 in 10.0 mi Calm Calm - N/A   Clear
8:35 PM 71.2 °F - 64.4 °F 79% 30.18 in 10.0 mi Calm Calm - N/A   Clear
8:55 PM 68.7 °F - 64.6 °F 87% 30.18 in 10.0 mi Calm Calm - N/A   Clear
9:15 PM 68.9 °F - 63.5 °F 83% 30.18 in 10.0 mi Calm Calm - N/A   Clear
9:35 PM 69.8 °F - 62.6 °F 78% 30.19 in 10.0 mi Calm Calm - N/A   Clear
9:55 PM 69.3 °F - 62.6 °F 79% 30.19 in 10.0 mi Calm Calm - N/A   Clear
10:15 PM 65.7 °F - 63.0 °F 91% 30.19 in 10.0 mi Calm Calm - N/A   Clear
10:35 PM 65.7 °F - 63.1 °F 92% 30.20 in 10.0 mi Calm Calm - N/A   Clear
10:55 PM 64.8 °F - 62.6 °F 93% 30.20 in 10.0 mi Calm Calm - N/A   Clear
11:15 PM 64.0 °F - 62.4 °F 94% 30.19 in 10.0 mi Calm Calm - N/A   Clear
11:35 PM 64.0 °F - 62.8 °F 96% 30.19 in 10.0 mi Calm Calm - N/A   Clear
11:55 PM 63.7 °F - 62.4 °F 96% 30.20 in 10.0 mi Calm Calm - N/A   Clear